Location: Chittendens Corners
(41.2320°N, 81.4940°W)
Time: 17:38:19
(UTC+00:00)

GPS 2-04 Rocket1 - Pass Details

Date: 29 October 2020
Orbit: 418 x 545 km, 35.6° (Epoch: 23 November)

Event Time Altitude Azimuth Distance (km) Brightness Sun altitude
Rises 23:31:57 0° 236° (SW) 2,604 7.5 -13.2°
Reaches altitude 10° 23:34:21 10° 224° (SW) 1,741 6.1 -13.7°
Maximum altitude 23:37:48 28° 165° (SSE) 1,019 4.1 -14.3°
Enters shadow 23:39:45 19° 123° (ESE) 1,305 4.3 -14.7°
